Location: Peebles
(55.6412°N, 3.1714°W)
Time: 17:09:44
(UTC+00:00)

Cosmos 1503 Rocket - Visible Passes

Search period start: 24 January 2022 00:00
Search period end: 03 February 2022 00:00
Orbit: 752 x 791 km, 74.0° (Epoch: 23 January)

Date Brightness Start Highest point End Pass type
(mag) Time Alt. Az. Time Alt. Az. Time Alt. Az.
24 Jan 6.2 03:38:35 22° NE 03:38:35 22° NE 03:41:54 10° E visible
24 Jan 4.0 05:18:57 42° NNW 05:20:47 79° ENE 05:26:01 10° SSE visible
24 Jan 5.2 06:59:19 14° WNW 07:02:21 22° W 07:06:16 10° SSW visible
25 Jan 6.8 03:03:45 14° ENE 03:03:45 14° ENE 03:04:56 10° ENE visible
25 Jan 4.5 04:44:08 53° NNE 04:44:41 55° NE 04:49:49 10° SE visible
25 Jan 4.7 06:24:30 24° WNW 06:26:36 32° WSW 06:31:11 10° SSW visible
25 Jan 6.1 19:25:14 10° S 19:25:59 14° SSE 19:25:59 14° SSE visible
26 Jan 5.3 04:09:25 37° ENE 04:09:25 37° ENE 04:13:24 10° ESE visible
26 Jan 4.2 05:49:48 42° WNW 05:50:47 47° WSW 05:55:44 10° S visible
26 Jan 5.6 18:50:01 10° SSE 18:51:58 19° SE 18:51:58 19° SE visible
26 Jan 6.0 20:30:42 10° SW 20:32:24 21° SW 20:32:24 21° SW visible
27 Jan 6.3 03:34:50 20° E 03:34:50 20° E 03:36:48 10° ESE visible
27 Jan 3.9 05:15:14 67° SW 05:15:14 67° SW 05:20:01 10° SSE visible
27 Jan 5.6 06:55:37 14° W 06:56:01 14° W 06:58:37 10° WSW visible
27 Jan 5.5 18:15:14 10° SE 18:17:54 17° ESE 18:17:54 17° ESE visible
27 Jan 4.7 19:54:38 10° SSW 19:58:19 45° SSW 19:58:19 45° SSW visible
27 Jan 6.8 21:38:15 10° W 21:38:45 12° W 21:38:45 12° W visible
28 Jan 4.9 04:40:47 40° SE 04:40:47 40° SE 04:44:03 10° SSE visible
28 Jan 5.3 06:21:11 20° WSW 06:21:11 20° WSW 06:24:10 10° SW visible
28 Jan 5.8 17:41:27 10° ESE 17:43:01 11° E 17:43:44 11° E visible
28 Jan 4.0 19:18:48 10° S 19:24:02 57° ESE 19:24:09 57° ESE visible
28 Jan 5.8 21:01:34 10° WSW 21:04:34 27° W 21:04:34 27° W visible
29 Jan 6.1 04:06:28 19° SE 04:06:28 19° SE 04:07:52 10° SE visible
29 Jan 5.4 05:46:53 22° SW 05:46:53 22° SW 05:49:07 10° SSW visible
29 Jan 4.5 18:43:14 10° S 18:48:09 39° ESE 18:49:52 30° ENE visible
29 Jan 4.8 20:25:04 10° SW 20:30:15 48° NW 20:30:16 48° NW visible
29 Jan 7.0 22:10:19 10° WNW 22:10:41 11° WNW 22:10:41 11° WNW visible
30 Jan 5.9 05:12:42 16° S 05:12:42 16° S 05:13:43 10° S visible
30 Jan 5.0 18:07:58 10° SSE 18:12:21 27° E 18:15:27 16° NE visible
30 Jan 4.3 19:48:46 10° SW 19:54:06 68° WNW 19:55:51 42° N visible
30 Jan 6.4 21:33:17 10° W 21:36:15 20° NW 21:36:15 20° NW visible
31 Jan 5.5 17:33:07 10° SE 17:36:39 18° E 17:40:09 10° NE visible
31 Jan 3.9 19:12:41 10° SSW 19:18:03 86° ESE 19:21:17 25° NNE visible
31 Jan 5.9 20:56:24 10° W 21:00:52 26° NW 21:01:41 25° NNW visible
01 Feb 4.1 18:36:50 10° S 18:42:05 59° ESE 18:46:37 14° NE visible
01 Feb 5.5 20:19:41 10° WSW 20:24:33 34° NW 20:26:59 23° N visible
01 Feb 6.8 22:05:42 10° NW 22:07:22 13° NW 22:07:22 13° NW visible
02 Feb 4.5 18:01:14 10° S 18:06:11 40° ESE 18:11:07 10° NE visible
02 Feb 5.0 19:43:11 10° SW 19:48:19 46° NW 19:52:11 17° NNE visible
02 Feb 6.5 21:28:31 10° WNW 21:31:50 16° NNW 21:32:33 16° NNW visible
